GW2898 Weather Reports


Display with metric or nautical units.
time (UTC)temp
F
wind
direction
speed
MPH
gust
MPH
rain 1hr
in
rain 24hr
in
rain mn
in
humidity
%
barometer
mb
20260509083710 73 129 0.0 1.0 0.00 0.00 0.00 32 1011.9
20260509083206 73 94 2.0 2.0 0.00 0.00 0.00 31 1011.6
20260509082703 74 107 0.0 2.0 0.00 0.00 0.00 30 1011.6
20260509082200 75 89 0.0 2.0 0.00 0.00 0.00 30 1011.8
20260509081657 76 78 0.0 2.0 0.00 0.00 0.00 28 1011.5
20260509081154 76 89 0.0 1.0 0.00 0.00 0.00 26 1011.7
20260509080652 76 117 0.0 1.0 0.00 0.00 0.00 27 1011.5
20260509080150 76 129 0.0 2.0 0.00 0.00 0.00 27 1011.5
20260509075648 77 40 1.0 2.0 0.00 0.00 0.00 25 1011.6
20260509075145 77 75 1.0 2.0 0.00 0.00 0.00 26 1011.7
20260509074642 78 60 1.0 2.0 0.00 0.00 0.00 26 1011.7
20260509074138 78 82 1.0 2.0 0.00 0.00 0.00 24 1011.5
20260509073635 79 101 0.0 2.0 0.00 0.00 0.00 23 1011.5
20260509073131 80 86 2.0 2.0 0.00 0.00 0.00 23 1011.3
20260509072628 80 80 1.0 2.0 0.00 0.00 0.00 22 1011.3
20260509072125 80 66 0.0 1.0 0.00 0.00 0.00 22 1011.5
20260509071622 82 117 0.0 0.0 0.00 0.00 0.00 19 1011.5
20260509071119 83 142 0.0 1.0 0.00 0.00 0.00 19 1011.6
20260509070616 84 142 0.0 1.0 0.00 0.00 0.00 18 1011.4
20260509070112 83 221 1.0 2.0 0.00 0.00 0.00 19 1011.5
20260509065608 83 333 0.0 1.0 0.00 0.00 0.00 19 1011.2
20260509065104 84 140 0.0 3.0 0.00 0.00 0.00 19 1011.4
20260509064602 84 205 0.0 2.0 0.00 0.00 0.00 19 1011.5
20260509064100 84 223 0.0 2.0 0.00 0.00 0.00 19 1011.5
20260509063555 84 269 0.0 1.0 0.00 0.00 0.00 19 1011.5
20260509063053 85 269 0.0 2.0 0.00 0.00 0.00 19 1011.6
20260509062549 86 207 0.0 2.0 0.00 0.00 0.00 18 1011.4
20260509062042 87 256 0.0 2.0 0.00 0.00 0.00 18 1011.4
20260509061538 87 251 2.0 2.0 0.00 0.00 0.00 17 1011.3
20260509061036 87 234 2.0 4.0 0.00 0.00 0.00 18 1011.4
20260509060533 88 242 2.0 5.0 0.00 0.00 0.00 17 1011.4
20260509060029 88 216 3.0 5.0 0.00 0.00 0.00 17 1011.3
20260509055524 88 228 2.0 5.0 0.00 0.00 0.00 18 1011.3
20260509055020 87 253 2.0 5.0 0.00 0.00 0.00 18 1011.3
20260509054517 88 225 3.0 4.0 0.00 0.00 0.00 18 1011.4
20260509054015 87 252 0.0 2.0 0.00 0.00 0.00 19 1011.4
20260509053513 88 244 3.0 5.0 0.00 0.00 0.00 17 1011.3
20260509053010 88 258 4.0 5.0 0.00 0.00 0.00 18 1011.3
20260509052507 88 218 0.0 5.0 0.00 0.00 0.00 19 1011.3
20260509052005 89 232 5.0 7.0 0.00 0.00 0.00 17 1011.2
20260509051503 89 223 3.0 7.0 0.00 0.00 0.00 17 1011.2
20260509051000 89 223 3.0 6.0 0.00 0.00 0.00 17 1011.3
20260509050456 89 244 4.0 5.0 0.00 0.00 0.00 17 1011.2
20260509045953 89 226 2.0 8.0 0.00 0.00 0.00 17 1011.7
20260509045450 89 212 0.0 7.0 0.00 0.00 0.00 18 1011.3
20260509044947 89 231 4.0 6.0 0.00 0.00 0.00 18 1011.2
20260509044445 89 240 3.0 4.0 0.00 0.00 0.00 18 1011.2
20260509043942 89 226 3.0 5.0 0.00 0.00 0.00 18 1011.1
20260509043437 89 227 2.0 6.0 0.00 0.00 0.00 18 1011.2
20260509042933 89 234 1.0 5.0 0.00 0.00 0.00 18 1011.0
20260509042431 91 246 0.0 6.0 0.00 0.00 0.00 18 1010.9
20260509041927 90 250 3.0 5.0 0.00 0.00 0.00 17 1011.1
20260509041423 91 218 3.0 5.0 0.00 0.00 0.00 18 1011.0
20260509040921 91 237 1.0 7.0 0.00 0.00 0.00 18 1010.9
20260509040419 91 222 2.0 5.0 0.00 0.00 0.00 17 1010.8
20260509035916 91 219 2.0 6.0 0.00 0.00 0.00 17 1010.8
20260509035413 92 249 1.0 9.0 0.00 0.00 0.00 17 1010.6
20260509034909 92 233 3.0 9.0 0.00 0.00 0.00 17 1010.6
20260509034407 92 241 3.0 10.0 0.00 0.00 0.00 17 1010.6
20260509033904 91 222 2.0 5.0 0.00 0.00 0.00 17 1010.5
20260509033401 91 264 1.0 6.0 0.00 0.00 0.00 17 1010.4
20260509032857 91 229 2.0 5.0 0.00 0.00 0.00 17 1010.3
20260509032355 88 262 2.0 3.0 0.00 0.00 0.00 19 1010.5
20260509031853 87 142 0.0 1.0 0.00 0.00 0.00 20 1010.4
20260509031350 86 224 0.0 2.0 0.00 0.00 0.00 21 1010.1
20260509030847 86 142 0.0 1.0 0.00 0.00 0.00 20 1010.3
20260509030345 87 212 0.0 0.0 0.00 0.00 0.00 20 1010.1
20260509025837 89 212 0.0 1.0 0.00 0.00 0.00 19 1010.2
20260509025332 89 218 0.0 2.0 0.00 0.00 0.00 18 1009.8
20260509024827 91 215 0.0 5.0 0.00 0.00 0.00 16 1010.2
20260509024324 92 255 0.0 1.0 0.00 0.00 0.00 16 1009.8
20260509023821 93 242 0.0 2.0 0.00 0.00 0.00 15 1009.7
20260509023319 94 262 2.0 5.0 0.00 0.00 0.00 15 1009.6
20260509022815 95 235 2.0 4.0 0.00 0.00 0.00 14 1009.7
20260509022313 95 258 6.0 10.0 0.00 0.00 0.00 14 1009.7
20260509021809 96 227 5.0 8.0 0.00 0.00 0.00 14 1009.6
20260509021306 95 223 3.0 8.0 0.00 0.00 0.00 14 1009.6
20260509020804 96 236 2.0 5.0 0.00 0.00 0.00 15 1009.4
20260509020302 96 226 4.0 9.0 0.00 0.00 0.00 13 1009.7
20260509015759 96 260 2.0 7.0 0.00 0.00 0.00 14 1009.4
20260509015257 96 240 3.0 6.0 0.00 0.00 0.00 14 1009.5
20260509014753 96 260 5.0 9.0 0.00 0.00 0.00 14 1009.3
20260509014250 96 242 2.0 6.0 0.00 0.00 0.00 15 1009.3
20260509013747 96 338 5.0 7.0 0.00 0.00 0.00 14 1009.3
20260509013243 96 221 5.0 7.0 0.00 0.00 0.00 14 1009.3
20260509012739 96 341 4.0 8.0 0.00 0.00 0.00 14 1009.5
20260509012235 97 239 2.0 7.0 0.00 0.00 0.00 14 1009.5
20260509011733 97 256 5.0 7.0 0.00 0.00 0.00 14 1009.4
20260509011231 97 251 4.0 9.0 0.00 0.00 0.00 14 1009.4
20260509010728 98 241 3.0 5.0 0.00 0.00 0.00 14 1009.8
20260509010224 98 256 4.0 9.0 0.00 0.00 0.00 13 1009.6
20260509005722 98 211 5.0 11.0 0.00 0.00 0.00 13 1009.8
20260509005220 99 246 6.0 7.0 0.00 0.00 0.00 14 1009.5
20260509004719 98 256 6.0 11.0 0.00 0.00 0.00 13 1009.8
20260509004217 98 275 4.0 13.0 0.00 0.00 0.00 14 1009.6
20260509003715 99 264 5.0 8.0 0.00 0.00 0.00 14 1010.2
20260509003213 99 242 7.0 9.0 0.00 0.00 0.00 14 1010.1
20260509002709 99 226 5.0 13.0 0.00 0.00 0.00 13 1009.9
20260509002207 98 257 5.0 15.0 0.00 0.00 0.00 14 1010.1
20260509001705 99 273 7.0 12.0 0.00 0.00 0.00 13 1009.9
20260509001200 99 301 4.0 8.0 0.00 0.00 0.00 14 1010.1
20260509000659 99 263 3.0 8.0 0.00 0.00 0.00 14 1009.8
20260509000155 98 250 5.0 11.0 0.00 0.00 0.00 14 1010.1
20260508235652 99 228 4.0 10.0 0.00 0.00 0.00 14 1009.9
20260508235149 98 265 2.0 15.0 0.00 0.00 0.00 14 1010.3
20260508234646 99 307 4.0 9.0 0.00 0.00 0.00 12 1010.1
20260508234142 99 238 5.0 16.0 0.00 0.00 0.00 13 1009.8
20260508233642 98 335 9.0 13.0 0.00 0.00 0.00 12 1010.2
20260508233139 99 319 5.0 13.0 0.00 0.00 0.00 12 1010.3
20260508232636 99 332 5.0 10.0 0.00 0.00 0.00 13 1010.2
20260508232133 98 246 7.0 17.0 0.00 0.00 0.00 12 1010.3
20260508231631 100 248 4.0 14.0 0.00 0.00 0.00 12 1010.4
20260508231127 100 302 3.0 11.0 0.00 0.00 0.00 12 1010.4
20260508230624 99 253 9.0 10.0 0.00 0.00 0.00 13 1010.5
20260508230121 99 318 5.0 10.0 0.00 0.00 0.00 14 1010.3
20260508225619 99 334 5.0 11.0 0.00 0.00 0.00 14 1010.3
20260508225114 100 275 3.0 9.0 0.00 0.00 0.00 14 1010.6
20260508224612 99 255 4.0 13.0 0.00 0.00 0.00 13 1010.4
20260508224110 99 299 3.0 11.0 0.00 0.00 0.00 15 1010.8
20260508223607 99 298 7.0 12.0 0.00 0.00 0.00 14 1010.8
20260508223104 98 256 5.0 11.0 0.00 0.00 0.00 15 1010.8
20260508222601 99 259 10.0 10.0 0.00 0.00 0.00 16 1010.9
20260508222058 99 320 4.0 10.0 0.00 0.00 0.00 15 1011.0
20260508221554 98 314 7.0 11.0 0.00 0.00 0.00 16 1011.2
20260508221050 100 254 13.0 13.0 0.00 0.00 0.00 14 1011.4
20260508220547 98 268 5.0 11.0 0.00 0.00 0.00 15 1011.2
20260508220043 98 338 4.0 11.0 0.00 0.00 0.00 15 1011.3
20260508215540 98 345 7.0 12.0 0.00 0.00 0.00 16 1011.5
20260508215038 98 261 4.0 13.0 0.00 0.00 0.00 17 1011.5
20260508214535 98 264 5.0 10.0 0.00 0.00 0.00 17 1011.7
20260508214031 98 289 3.0 9.0 0.00 0.00 0.00 18 1011.8
20260508213529 97 306 6.0 14.0 0.00 0.00 0.00 16 1011.8
20260508213024 98 306 4.0 8.0 0.00 0.00 0.00 16 1011.8
20260508212521 97 321 3.0 9.0 0.00 0.00 0.00 17 1012.0
20260508212017 97 241 5.0 9.0 0.00 0.00 0.00 16 1012.2
20260508211513 97 316 7.0 11.0 0.00 0.00 0.00 16 1012.0
20260508211009 97 338 4.0 7.0 0.00 0.00 0.00 16 1012.3
20260508210506 96 339 0.0 4.0 0.00 0.00 0.00 16 1012.3
20260508210003 96 262 5.0 5.0 0.00 0.00 0.00 17 1012.5
20260508205500 95 220 3.0 11.0 0.00 0.00 0.00 18 1012.6
20260508204956 96 296 4.0 8.0 0.00 0.00 0.00 19 1012.3
20260508204454 95 214 2.0 4.0 0.00 0.00 0.00 16 1012.7
20260508203949 95 259 3.0 9.0 0.00 0.00 0.00 18 1012.7
20260508203445 95 267 5.0 6.0 0.00 0.00 0.00 18 1012.8
20260508202941 95 196 2.0 5.0 0.00 0.00 0.00 19 1013.0
20260508202439 94 176 1.0 3.0 0.00 0.00 0.00 18 1012.8
20260508201935 93 12 1.0 4.0 0.00 0.00 0.00 18 1012.8
20260508201432 94 21 2.0 3.0 0.00 0.00 0.00 19 1013.1
20260508200929 93 290 3.0 6.0 0.00 0.00 0.00 19 1013.2
20260508200426 94 281 0.0 5.0 0.00 0.00 0.00 19 1013.2
20260508195921 93 89 4.0 5.0 0.00 0.00 0.00 19 1013.4
20260508195419 92 177 3.0 5.0 0.00 0.00 0.00 21 1013.4
20260508194914 92 195 4.0 9.0 0.00 0.00 0.00 21 1013.5
20260508194411 92 219 4.0 6.0 0.00 0.00 0.00 21 1013.4
20260508193903 91 93 3.0 6.0 0.00 0.00 0.00 18 1013.6
20260508193359 92 68 0.0 7.0 0.00 0.00 0.00 19 1013.8
20260508192855 92 49 0.0 4.0 0.00 0.00 0.00 18 1013.9
20260508192352 91 234 0.0 5.0 0.00 0.00 0.00 20 1013.8
20260508191850 91 269 5.0 9.0 0.00 0.00 0.00 19 1014.1
20260508191347 91 282 1.0 6.0 0.00 0.00 0.00 18 1014.2
20260508190844 91 167 1.0 6.0 0.00 0.00 0.00 19 1014.1
20260508190340 91 209 1.0 5.0 0.00 0.00 0.00 22 1014.2
20260508185837 89 244 2.0 6.0 0.00 0.00 0.00 20 1014.3
20260508185335 89 221 3.0 7.0 0.00 0.00 0.00 20 1014.4
20260508184832 90 164 1.0 3.0 0.00 0.00 0.00 21 1014.5
20260508184329 89 165 2.0 4.0 0.00 0.00 0.00 20 1014.5
20260508183826 88 339 3.0 5.0 0.00 0.00 0.00 21 1014.8
20260508183322 88 274 6.0 6.0 0.00 0.00 0.00 19 1014.8
20260508182817 90 306 0.0 2.0 0.00 0.00 0.00 21 1014.7
20260508182315 90 266 3.0 5.0 0.00 0.00 0.00 21 1014.7
20260508181810 89 273 0.0 3.0 0.00 0.00 0.00 21 1014.8
20260508181308 88 107 2.0 6.0 0.00 0.00 0.00 21 1015.0
20260508180805 88 84 0.0 3.0 0.00 0.00 0.00 20 1014.9
20260508180302 89 226 3.0 4.0 0.00 0.00 0.00 22 1014.8
20260508175758 89 343 2.0 3.0 0.00 0.00 0.00 21 1015.0
20260508175255 87 17 3.0 4.0 0.00 0.00 0.00 21 1015.0
20260508174753 87 182 0.0 6.0 0.00 0.00 0.00 22 1015.0
20260508174250 86 247 2.0 4.0 0.00 0.00 0.00 22 1015.1
20260508173746 86 115 3.0 4.0 0.00 0.00 0.00 22 1015.3
20260508173242 87 148 0.0 3.0 0.00 0.00 0.00 23 1015.4
20260508172738 86 255 0.0 3.0 0.00 0.00 0.00 24 1015.2
20260508172236 85 298 2.0 6.0 0.00 0.00 0.00 24 1015.3
20260508171732 86 199 1.0 3.0 0.00 0.00 0.00 27 1015.4
20260508171228 85 214 2.0 3.0 0.00 0.00 0.00 24 1015.4
20260508170725 84 285 2.0 3.0 0.00 0.00 0.00 23 1015.3
20260508170223 86 163 3.0 3.0 0.00 0.00 0.00 23 1015.5
20260508165720 84 65 0.0 4.0 0.00 0.00 0.00 24 1015.5
20260508165217 84 233 2.0 5.0 0.00 0.00 0.00 25 1015.6
20260508164713 85 253 2.0 3.0 0.00 0.00 0.00 25 1015.5
20260508164210 84 60 2.0 4.0 0.00 0.00 0.00 24 1015.4
20260508163708 84 231 2.0 3.0 0.00 0.00 0.00 27 1015.7
20260508163205 83 81 1.0 4.0 0.00 0.00 0.00 26 1015.5
20260508162700 82 229 0.0 3.0 0.00 0.00 0.00 26 1015.6
20260508162158 81 223 2.0 4.0 0.00 0.00 0.00 26 1015.6
20260508161655 82 200 3.0 4.0 0.00 0.00 0.00 25 1016.0
20260508161152 82 209 1.0 4.0 0.00 0.00 0.00 31 1015.7
20260508160651 81 237 2.0 3.0 0.00 0.00 0.00 25 1015.3
20260508160148 82 203 4.0 6.0 0.00 0.00 0.00 26 1015.7
20260508155645 79 347 1.0 3.0 0.00 0.00 0.00 27 1015.5
20260508155141 81 151 2.0 5.0 0.00 0.00 0.00 26 1015.7
20260508154639 80 170 2.0 3.0 0.00 0.00 0.00 28 1015.5
20260508154136 80 163 2.0 4.0 0.00 0.00 0.00 27 1015.4
20260508153633 79 160 0.0 4.0 0.00 0.00 0.00 29 1015.7
20260508153130 78 191 0.0 5.0 0.00 0.00 0.00 29 1015.4
20260508152626 78 127 0.0 5.0 0.00 0.00 0.00 30 1015.6
20260508152121 80 74 3.0 4.0 0.00 0.00 0.00 29 1015.5
20260508151618 78 157 2.0 3.0 0.00 0.00 0.00 30 1015.5
20260508151115 78 205 2.0 4.0 0.00 0.00 0.00 29 1015.7
20260508150612 77 179 2.0 5.0 0.00 0.00 0.00 30 1015.7
20260508150109 76 126 2.0 5.0 0.00 0.00 0.00 31 1015.7
20260508145605 76 107 0.0 3.0 0.00 0.00 0.00 32 1015.7
20260508145102 78 16 3.0 3.0 0.00 0.00 0.00 29 1015.7
20260508144600 77 164 0.0 2.0 0.00 0.00 0.00 32 1015.8
20260508144057 77 333 0.0 2.0 0.00 0.00 0.00 32 1016.0
20260508143554 78 11 2.0 3.0 0.00 0.00 0.00 31 1015.7
20260508143051 76 202 0.0 1.0 0.00 0.00 0.00 33 1015.8
20260508142547 76 51 0.0 1.0 0.00 0.00 0.00 33 1015.7
20260508142043 75 105 2.0 2.0 0.00 0.00 0.00 34 1015.6
20260508141540 75 84 2.0 3.0 0.00 0.00 0.00 33 1015.5
20260508141038 75 129 0.0 2.0 0.00 0.00 0.00 35 1015.5
20260508140535 74 19 2.0 2.0 0.00 0.00 0.00 36 1015.4
20260508140031 71 6 0.0 2.0 0.00 0.00 0.00 42 1015.4
20260508135527 74 37 0.0 1.0 0.00 0.00 0.00 39 1015.6
20260508135024 70 56 1.0 2.0 0.00 0.00 0.00 42 1015.4
20260508134520 69 36 0.0 2.0 0.00 0.00 0.00 46 1015.2
20260508134017 69 32 0.0 2.0 0.00 0.00 0.00 44 1015.2
20260508133514 69 25 1.0 2.0 0.00 0.00 0.00 45 1014.9
20260508133011 68 63 0.0 1.0 0.00 0.00 0.00 45 1015.1
20260508132509 67 101 1.0 2.0 0.00 0.00 0.00 44 1014.9
20260508132006 65 40 0.0 2.0 0.00 0.00 0.00 48 1015.0
20260508131500 64 32 1.0 2.0 0.00 0.00 0.00 48 1015.0
20260508130957 64 67 1.0 2.0 0.00 0.00 0.00 48 1014.7
20260508130455 62 83 1.0 2.0 0.00 0.00 0.00 51 1014.6
20260508125950 60 82 1.0 3.0 0.00 0.00 0.00 54 1014.7
20260508125447 59 76 1.0 2.0 0.00 0.00 0.00 57 1014.5
20260508124945 57 160 0.0 2.0 0.00 0.00 0.00 59 1014.7
20260508124442 58 82 1.0 2.0 0.00 0.00 0.00 58 1014.3
20260508123939 58 83 1.0 3.0 0.00 0.00 0.00 57 1014.4
20260508123438 58 81 2.0 3.0 0.00 0.00 0.00 57 1014.4
20260508122934 57 114 1.0 2.0 0.00 0.00 0.00 59 1014.4
20260508122431 58 81 1.0 2.0 0.00 0.00 0.00 57 1014.5
20260508121928 58 104 2.0 3.0 0.00 0.00 0.00 57 1014.4
20260508121427 58 147 0.0 2.0 0.00 0.00 0.00 56 1014.0
20260508120924 59 24 1.0 2.0 0.00 0.00 0.00 55 1014.3
20260508120421 58 43 1.0 2.0 0.00 0.00 0.00 55 1014.1
20260508115919 58 37 0.0 2.0 0.00 0.00 0.00 55 1014.1
20260508115418 59 131 0.0 2.0 0.00 0.00 0.00 53 1013.9
20260508114913 59 70 0.0 2.0 0.00 0.00 0.00 52 1014.0
20260508114410 59 92 1.0 3.0 0.00 0.00 0.00 52 1013.9
20260508113906 59 89 0.0 2.0 0.00 0.00 0.00 50 1014.2
20260508113404 60 103 0.0 2.0 0.00 0.00 0.00 50 1013.9
20260508112901 60 91 2.0 3.0 0.00 0.00 0.00 49 1013.9
20260508112358 60 44 0.0 3.0 0.00 0.00 0.00 48 1014.0
20260508111854 59 116 1.0 3.0 0.00 0.00 0.00 50 1014.0
20260508111352 60 117 0.0 2.0 0.00 0.00 0.00 48 1014.0
20260508110849 60 105 1.0 3.0 0.00 0.00 0.00 45 1013.8
20260508110346 61 119 0.0 2.0 0.00 0.00 0.00 46 1014.0
20260508105846 61 54 2.0 4.0 0.00 0.00 0.00 43 1014.0
20260508105343 60 97 1.0 2.0 0.00 0.00 0.00 45 1014.0
20260508104840 60 74 0.0 2.0 0.00 0.00 0.00 44 1014.0
20260508104337 61 50 0.0 2.0 0.00 0.00 0.00 44 1013.9
20260508103835 61 15 0.0 2.0 0.00 0.00 0.00 43 1014.0
20260508103331 61 83 2.0 2.0 0.00 0.00 0.00 42 1013.7
20260508102828 61 58 0.0 2.0 0.00 0.00 0.00 42 1013.9
20260508102327 61 75 1.0 2.0 0.00 0.00 0.00 41 1014.0
20260508101823 61 97 1.0 2.0 0.00 0.00 0.00 40 1013.7
20260508101321 62 91 3.0 3.0 0.00 0.00 0.00 41 1013.6
20260508100818 63 20 0.0 2.0 0.00 0.00 0.00 40 1013.7
20260508100317 62 44 2.0 2.0 0.00 0.00 0.00 39 1013.7
20260508095812 63 15 2.0 2.0 0.00 0.00 0.00 38 1013.9
20260508095310 62 42 0.0 2.0 0.00 0.00 0.00 38 1013.7
20260508094806 63 89 0.0 2.0 0.00 0.00 0.00 39 1013.4
20260508094304 63 38 0.0 2.0 0.00 0.00 0.00 39 1013.7
20260508093801 63 86 1.0 2.0 0.00 0.00 0.00 38 1013.5
20260508093258 64 42 2.0 3.0 0.00 0.00 0.00 40 1013.5
20260508092755 63 142 0.0 2.0 0.00 0.00 0.00 38 1013.6
20260508092253 64 75 1.0 2.0 0.00 0.00 0.00 41 1013.7
20260508091751 63 217 0.0 1.0 0.00 0.00 0.00 42 1013.3
20260508091247 63 84 1.0 2.0 0.00 0.00 0.00 43 1013.7
20260508090745 64 145 0.0 1.0 0.00 0.00 0.00 42 1013.6
20260508090243 64 89 3.0 3.0 0.00 0.00 0.00 42 1013.7
20260508085738 64 150 0.0 2.0 0.00 0.00 0.00 41 1013.4
20260508085236 64 92 1.0 2.0 0.00 0.00 0.00 40 1013.6
20260508084732 64 130 0.0 1.0 0.00 0.00 0.00 41 1013.7
20260508084230 64 29 1.0 2.0 0.00 0.00 0.00 41 1013.6